Wind_Speed
27 28 28 28 28 28 28 28 29 30 31 31 33 33 34 35 36 36 37 37 37 38 39 39 40 41 43 44 45 46 46 46 46 45 45 46 46 45 45 45 45 46 46
28 28 28 29 28 28 29 29 29 30 31 32 33 34 34 35 36 37 37 38 39 39 40 41 41 43 44 45 46 46 47 48 48 46 46 46 46 45 45 46 46 46 46
29 30 30 30 30 30 30 30 31 32 32 33 34 35 36 37 38 38 39 39 39 40 41 43 43 44 45 46 46 47 47 48 47 46 46 47 47 46 46 47 47 47 47
30 30 30 31 31 31 32 32 32 33 33 34 35 36 37 38 39 40 40 41 41 42 43 44 45 46 46 46 45 46 46 47 46 46 47 47 47 46 46 46 46 47 47
31 32 32 32 33 34 34 34 34 34 35 36 37 37 38 40 41 41 41 42 43 43 44 44 45 46 45 45 45 45 46 46 46 46 46 46 46 45 45 45 46 45 46
33 34 34 34 35 35 36 36 37 37 38 38 39 39 40 41 42 42 42 43 44 44 45 45 45 45 45 45 45 45 45 45 46 46 46 45 44 45 44 44 45 44 44
35 35 36 36 37 37 38 38 39 40 40 40 41 42 42 43 43 43 43 44 44 45 45 45 45 45 45 44 44 45 45 45 46 46 45 44 44 44 44 44 44 44 44
36 37 38 38 39 39 40 40 41 41 41 42 43 44 44 44 44 44 44 44 44 44 44 45 45 45 44 44 45 45 45 45 45 45 44 44 44 44 44 44 45 45 45
38 38 38 39 40 41 41 42 42 42 42 43 44 44 45 45 45 45 45 45 44 44 44 44 45 44 44 44 44 44 43 44 44 45 45 44 44 44 44 45 46 46 46
40 40 40 40 41 41 42 42 42 43 43 44 44 45 46 46 45 45 45 45 45 44 44 44 44 44 44 45 44 43 43 44 45 44 44 45 45 45 45 46 47 47 47
41 41 42 42 43 43 44 44 43 43 44 44 45 46 46 46 45 45 45 46 45 45 45 44 44 44 44 44 44 44 44 44 44 44 45 45 45 46 47 48 48 48 48
42 42 43 44 44 44 45 45 45 45 46 46 46 46 46 46 46 45 45 46 46 46 46 45 45 46 46 46 46 46 46 46 46 46 46 47 47 48 48 49 49 49 48
44 44 45 45 45 46 46 46 46 47 48 48 48 47 46 45 45 45 45 46 46 46 46 46 46 47 47 48 48 48 48 48 49 49 49 49 49 50 49 49 49 48 48
47 47 46 46 47 47 48 48 48 49 49 49 49 48 47 47 47 47 47 48 48 48 47 47 48 48 49 49 49 49 50 50 50 50 50 50 50 51 50 50 49 49 49
49 48 48 48 48 48 49 49 50 50 49 49 49 49 49 49 49 49 49 49 49 49 49 49 49 50 50 50 50 51 51 51 51 51 51 51 51 51 51 51 51 51 50
50 50 50 51 51 50 50 51 51 51 50 49 49 50 50 50 50 50 50 51 51 51 51 51 51 51 51 51 51 52 52 52 51 51 51 51 51 51 52 52 52 51 51
51 52 52 52 52 52 52 51 50 50 50 50 51 51 51 51 51 52 52 52 53 53 53 53 53 53 53 53 52 52 52 51 51 51 51 51 51 52 51 51 51 51 51
52 53 53 53 52 52 52 51 51 51 51 51 52 52 52 52 52 53 53 53 53 53 53 53 53 53 53 53 52 52 51 50 50 50 50 51 51 51 51 50 50 50 50
52 52 53 52 52 52 52 52 52 51 52 52 52 53 53 52 52 52 52 53 53 53 53 53 52 52 52 52 52 51 51 50 50 50 50 50 50 50 49 49 49 49 49
52 52 52 52 52 52 52 52 52 53 53 53 53 52 52 52 51 52 52 52 53 53 53 53 52 52 52 52 51 51 50 49 49 49 49 49 48 49 49 49 48 48 48
52 53 53 53 53 53 54 54 53 53 53 52 52 52 51 52 52 52 52 52 53 53 53 54 53 53 52 52 51 49 48 47 48 48 49 49 48 48 48 47 47 47 47
53 54 54 54 54 54 54 54 54 53 53 52 51 51 51 51 51 51 52 53 53 54 54 54 53 52 51 50 49 49 48 48 48 47 47 46 46 45 45 45 45 45 45
53 53 53 53 53 53 53 53 53 53 53 52 52 52 52 51 51 51 52 53 53 54 54 53 52 51 50 49 48 48 47 46 46 45 44 44 43 43 43 43 43 44 44
51 51 51 51 51 51 51 51 51 51 51 51 52 52 52 51 52 52 53 53 53 53 52 50 49 48 47 46 45 45 45 44 43 43 42 41 41 41 41 42 42 43 42
50 50 49 50 50 49 49 49 49 48 48 49 49 50 50 51 51 51 52 52 51 50 49 48 46 45 45 44 43 43 43 42 42 41 41 40 40 40 41 41 41 40 40
49 49 49 49 49 48 48 48 47 47 47 47 47 47 48 48 48 48 47 47 46 46 46 46 45 44 45 44 43 43 43 42 41 41 40 40 40 40 40 39 39 38 37
Wind_Direction
268 268 267 268 271 274 276 277 278 279 280 282 283 284 286 287 288 290 291 289 288 288 288 289 290 289 289 290 290 290 290 291 291 291 291 291 292 290 289 289 290 289 289
270 269 267 268 272 276 277 279 280 280 281 282 283 285 287 288 289 290 290 290 289 288 288 289 289 289 290 289 290 290 291 291 291 291 292 292 292 290 289 289 290 289 289
270 268 267 270 273 275 277 279 280 281 281 282 283 285 286 288 290 291 290 289 289 288 288 288 289 289 290 290 290 290 290 290 290 291 291 292 292 290 289 289 290 290 289
269 269 269 272 274 275 277 278 279 280 280 282 284 286 287 288 290 291 291 290 290 290 290 290 290 290 291 290 291 291 291 291 291 292 292 292 292 291 290 290 291 290 289
272 272 273 273 274 276 277 278 279 280 282 283 284 286 288 289 290 290 291 291 291 291 291 291 291 291 292 291 292 292 292 292 292 293 293 293 293 293 292 292 292 291 290
273 273 274 274 275 276 277 278 279 280 282 284 285 286 287 289 289 290 291 292 292 292 291 291 291 292 292 292 293 293 292 292 293 293 293 294 294 293 293 293 293 292 291
273 273 274 275 275 276 277 278 279 280 282 284 285 286 287 288 290 290 291 292 292 292 292 292 292 292 292 292 292 292 293 293 293 293 294 294 294 294 294 294 295 294 293
273 273 274 275 276 276 277 278 279 281 283 284 285 286 286 288 289 290 290 291 291 292 291 292 292 292 292 291 292 293 293 293 293 293 293 293 293 294 295 295 295 294 294
273 273 274 274 275 276 277 278 279 281 283 284 285 285 286 287 289 289 289 290 291 291 290 290 290 289 289 290 290 291 293 293 293 294 294 294 295 295 296 296 296 295 295
273 273 274 275 276 276 277 279 280 281 282 284 285 285 285 287 288 289 289 290 291 291 290 289 290 289 289 290 290 291 293 294 294 294 294 294 294 295 295 296 296 296 295
273 273 274 275 276 276 277 278 280 281 282 284 285 286 286 287 288 289 289 290 290 290 290 290 289 289 290 290 291 292 293 294 295 294 294 295 295 295 296 296 296 295 295
272 273 273 275 275 276 277 278 279 281 282 283 285 286 286 286 287 288 289 290 290 291 291 290 290 290 290 290 291 292 293 294 295 294 294 295 295 296 296 296 296 296 296
273 273 274 275 275 276 277 278 280 281 282 283 284 285 286 286 287 287 288 289 289 290 291 291 292 291 291 290 291 292 292 293 293 293 293 294 295 296 296 296 296 296 295
273 274 274 274 274 276 277 278 280 280 281 282 283 284 285 286 288 289 290 290 290 291 290 291 291 292 292 292 292 292 292 292 292 292 292 293 294 295 295 295 294 294 295
274 274 274 274 274 275 277 278 279 280 280 282 283 284 286 286 288 289 290 291 291 292 292 292 292 292 292 291 291 291 292 292 292 292 292 293 294 294 294 294 293 293 293
273 274 274 274 274 275 276 278 279 280 280 282 284 285 286 286 287 289 290 290 291 291 292 292 292 292 291 290 290 291 292 292 292 292 293 293 293 294 293 293 293 293 293
274 275 275 275 275 276 276 278 278 279 281 282 284 285 286 287 287 288 289 290 290 291 292 292 292 292 291 290 290 291 291 291 292 292 293 293 294 294 294 293 293 293 293
275 275 275 275 276 276 277 278 279 279 280 282 284 285 286 287 287 288 289 289 290 291 292 292 292 292 292 291 291 292 291 291 291 292 293 293 294 294 294 294 293 293 293
276 276 276 276 276 277 277 277 278 279 280 282 283 284 286 286 287 288 288 289 290 291 291 291 292 292 291 291 292 292 291 291 291 292 293 293 293 293 293 293 293 293 293
277 277 276 276 277 277 277 278 279 280 281 282 283 284 284 286 287 288 288 289 289 290 291 291 292 292 291 291 291 291 291 291 292 293 293 293 293 293 293 293 293 293 293
277 277 277 277 278 278 278 279 279 280 281 282 283 284 285 285 286 287 288 289 290 290 290 291 292 292 292 292 291 291 291 291 292 293 294 294 294 294 293 294 294 294 294
278 278 278 278 278 278 278 278 279 279 280 281 283 284 285 286 286 287 288 289 289 290 290 291 292 292 292 291 291 291 291 292 293 293 294 294 294 294 295 295 295 295 295
279 279 279 279 279 279 279 278 279 279 280 281 282 283 284 285 286 287 288 289 289 290 290 291 291 291 291 292 292 292 292 293 293 294 294 294 294 295 295 296 297 297 297
279 279 279 280 280 280 280 280 280 280 280 281 282 282 283 284 286 286 287 288 289 289 289 289 290 290 290 291 292 292 293 293 294 294 295 295 295 296 296 296 297 298 299
279 279 279 279 280 280 280 281 281 281 281 282 283 283 284 285 286 286 287 288 288 288 288 288 288 288 289 290 291 292 292 293 294 295 296 296 296 296 297 297 298 299 299
278 279 279 279 279 280 280 281 281 281 281 282 283 285 285 286 286 287 288 288 288 288 288 287 287 288 289 290 291 291 291 292 293 295 297 297 296 296 297 298 298 298 299
Height
5667 5667 5667 5667 5668 5667 5667 5666 5665 5664 5663 5661 5660 5658 5656 5654 5652 5649 5646 5643 5640 5638 5635 5633 5630 5628 5625 5621 5618 5614 5611 5608 5605 5604 5600 5596 5592 5588 5586 5583 5580 5577 5575
5661 5661 5660 5660 5660 5660 5659 5658 5657 5656 5654 5653 5651 5650 5648 5645 5643 5640 5637 5634 5631 5628 5626 5623 5620 5617 5613 5610 5606 5602 5599 5596 5592 5590 5588 5584 5580 5576 5573 5570 5567 5565 5562
5653 5653 5653 5653 5653 5652 5651 5650 5649 5648 5646 5645 5643 5641 5639 5636 5633 5630 5627 5624 5621 5619 5616 5612 5609 5605 5602 5598 5594 5591 5587 5583 5579 5577 5574 5571 5567 5564 5561 5558 5555 5552 5549
5646 5646 5645 5645 5645 5644 5643 5642 5641 5639 5638 5636 5634 5632 5629 5627 5624 5620 5617 5614 5611 5608 5605 5601 5597 5593 5590 5586 5582 5579 5575 5571 5567 5564 5561 5558 5554 5550 5547 5544 5542 5539 5536
5638 5637 5637 5636 5635 5635 5634 5633 5631 5630 5628 5627 5625 5622 5619 5616 5613 5610 5607 5604 5600 5597 5593 5589 5586 5582 5578 5574 5570 5567 5563 5559 5555 5552 5548 5545 5541 5538 5534 5531 5528 5525 5523
5629 5628 5628 5627 5626 5625 5624 5623 5622 5620 5618 5617 5614 5612 5609 5606 5603 5599 5596 5593 5589 5585 5582 5578 5574 5570 5566 5562 5559 5555 5551 5547 5543 5539 5535 5532 5529 5525 5522 5518 5515 5512 5510
5619 5619 5618 5617 5616 5615 5614 5613 5611 5610 5608 5606 5604 5601 5598 5595 5591 5588 5584 5581 5577 5574 5570 5566 5562 5558 5554 5551 5547 5543 5539 5534 5530 5526 5523 5519 5516 5513 5509 5506 5502 5499 5496
5609 5609 5608 5607 5606 5605 5603 5602 5600 5599 5597 5594 5592 5589 5587 5583 5580 5576 5573 5569 5565 5562 5558 5554 5551 5547 5543 5539 5535 5531 5527 5523 5518 5515 5511 5508 5504 5500 5496 5493 5489 5486 5483
5598 5598 5597 5596 5595 5594 5592 5591 5589 5587 5585 5583 5580 5577 5575 5571 5568 5564 5561 5557 5554 5550 5546 5542 5539 5535 5531 5527 5524 5520 5516 5511 5506 5502 5499 5495 5491 5487 5484 5480 5476 5472 5470
5587 5586 5586 5585 5583 5582 5581 5579 5577 5576 5573 5571 5568 5565 5562 5559 5555 5552 5548 5545 5542 5538 5534 5530 5527 5523 5519 5515 5511 5508 5504 5500 5495 5491 5487 5483 5479 5475 5471 5467 5463 5459 5455
5575 5575 5574 5573 5572 5570 5569 5567 5565 5563 5561 5559 5556 5553 5550 5546 5543 5540 5536 5533 5529 5526 5522 5518 5514 5510 5506 5503 5499 5495 5492 5488 5484 5480 5476 5471 5467 5463 5459 5454 5449 5445 5441
5563 5562 5561 5560 5559 5557 5556 5554 5552 5550 5548 5545 5543 5540 5536 5533 5530 5527 5523 5520 5516 5513 5509 5506 5502 5497 5494 5490 5487 5483 5479 5474 5471 5467 5463 5459 5454 5450 5445 5441 5436 5431 5427
5549 5549 5548 5547 5545 5544 5542 5541 5539 5537 5535 5532 5529 5527 5524 5520 5517 5514 5510 5507 5503 5500 5496 5493 5489 5485 5481 5477 5473 5469 5465 5461 5457 5453 5449 5445 5440 5436 5431 5426 5422 5417 5413
5536 5535 5534 5533 5532 5530 5528 5527 5525 5523 5521 5518 5516 5513 5510 5507 5504 5500 5497 5494 5490 5486 5483 5479 5475 5471 5467 5463 5459 5455 5451 5446 5442 5438 5434 5430 5426 5421 5417 5412 5408 5403 5399
5521 5520 5519 5519 5517 5516 5514 5512 5510 5508 5506 5504 5502 5499 5497 5494 5490 5487 5483 5480 5476 5472 5469 5465 5461 5457 5453 5448 5444 5440 5435 5431 5427 5423 5418 5415 5410 5406 5402 5397 5393 5388 5384
5506 5505 5504 5504 5502 5501 5500 5498 5495 5493 5491 5489 5487 5484 5482 5479 5476 5473 5469 5465 5461 5458 5454 5450 5446 5442 5437 5433 5429 5425 5420 5415 5411 5407 5403 5398 5394 5390 5386 5382 5377 5373 5369
5491 5490 5489 5488 5487 5485 5484 5482 5481 5479 5476 5474 5472 5469 5467 5464 5461 5458 5454 5450 5447 5443 5439 5435 5431 5426 5422 5417 5413 5408 5404 5399 5395 5391 5387 5382 5378 5374 5370 5366 5361 5357 5352
5475 5474 5473 5472 5470 5469 5468 5466 5465 5463 5462 5459 5456 5454 5451 5448 5445 5442 5438 5435 5431 5427 5423 5419 5414 5410 5405 5401 5396 5392 5388 5383 5379 5375 5371 5366 5362 5358 5354 5350 5345 5341 5336
5459 5458 5456 5455 5454 5453 5451 5450 5449 5447 5445 5444 5441 5438 5435 5432 5429 5426 5422 5419 5415 5412 5407 5403 5398 5394 5389 5385 5380 5376 5372 5367 5363 5359 5355 5350 5346 5341 5338 5333 5329 5325 5321
5443 5441 5440 5439 5437 5436 5435 5434 5432 5431 5429 5427 5425 5422 5419 5416 5413 5410 5406 5403 5399 5395 5391 5387 5382 5378 5373 5369 5364 5360 5356 5352 5348 5343 5339 5335 5330 5326 5322 5318 5314 5309 5305
5426 5425 5423 5422 5421 5420 5418 5417 5415 5414 5412 5410 5407 5404 5402 5400 5397 5394 5391 5387 5383 5379 5375 5371 5366 5362 5357 5353 5349 5344 5341 5337 5333 5328 5324 5320 5316 5311 5307 5303 5299 5294 5290
5410 5408 5407 5405 5404 5402 5401 5399 5398 5396 5395 5393 5391 5388 5385 5383 5380 5378 5374 5371 5367 5363 5359 5355 5350 5346 5341 5337 5333 5330 5326 5322 5318 5313 5309 5305 5301 5297 5293 5289 5285 5280 5276
5393 5391 5390 5388 5386 5385 5383 5381 5380 5379 5378 5376 5374 5372 5369 5367 5364 5361 5358 5354 5350 5346 5342 5338 5334 5330 5326 5322 5318 5315 5311 5307 5303 5299 5295 5291 5287 5283 5279 5275 5271 5267 5262
5376 5375 5373 5371 5370 5368 5366 5364 5363 5361 5360 5358 5357 5355 5353 5350 5347 5344 5341 5337 5333 5329 5325 5322 5318 5315 5311 5308 5304 5300 5297 5293 5289 5285 5281 5278 5274 5270 5266 5263 5258 5254 5249
5360 5359 5357 5355 5353 5352 5350 5348 5346 5345 5343 5342 5340 5338 5336 5333 5330 5327 5324 5320 5317 5313 5310 5306 5303 5300 5297 5294 5290 5287 5283 5279 5275 5272 5268 5265 5261 5258 5254 5250 5246 5242 5237
5344 5343 5341 5339 5337 5336 5334 5332 5331 5329 5327 5326 5324 5322 5319 5317 5314 5311 5307 5304 5301 5298 5295 5291 5288 5285 5283 5280 5276 5273 5270 5266 5263 5259 5256 5252 5249 5245 5242 5238 5234 5230 5226